カタログに戻る

SL-8 DEB *

運用中LEO
NORAD 13498·DEBRIS·🇷🇺 Russia

打ち上げ May 7, 1981 から Plesetsk Cosmodrome

Loading…

次のパス (今後24時間)

TLE

最新Source: Space-Track

元期: Sep 14, 2026, 02:33 UTC

1 13498U 81041C   26257.10688677  .00001619  00000-0  25980-3 0  9998
2 13498  74.0128 125.2974 0009366 200.5888 313.5927 14.72536879414151

AllMySatでSL-8 DEB *をリアルタイム追跡

Download on the App Store